#timestamp,LO_Frequency,Hit,StdDev 
1577102415.4,286047003.2,N
1577102435.2,286046999.7,N
1577102485.1,286047001.6,E
1577102495.9,286047000.8,N
1577102515.7,286046998.5,P
1577102535.6,286046998.9,N
1577102555.4,286046996.9,Y
1577102575.3,286046997.7,P
1577102595.1,286046997.6,N
1577102596.0,286046997.6,N
1577102615.8,286046995.0,Y
1577102635.7,286046998.2,P
1577102655.5,286046998.2,P
1577102675.3,286046999.8,P
1577102695.2,286046999.7,N
1577102715.0,286047001.0,N
1577102715.9,286047001.0,N
1577102735.8,286046998.9,N
1577102755.6,286046999.0,N
1577102775.4,286046999.0,N
1577102795.3,286046999.3,N
1577102815.1,286046998.4,N
1577102835.9,286047000.7,N
1577102855.7,286046998.7,N
1577102875.5,286046998.6,N
1577102895.4,286046999.0,N
1577102915.2,286046999.7,N
1577102935.0,286046998.4,N
1577102935.9,286046998.4,N
1577102955.8,286046999.3,N
1577102975.6,286046999.5,N
1577102995.5,286046995.4,Y
1577103015.3,286046997.0,P
1577103035.1,286046997.2,N
1577103055.9,286046998.0,N
1577103075.7,286046996.7,Y
1577103095.6,286047001.2,P
1577103115.4,286047000.0,N
1577103135.2,286047000.2,N
1577103155.1,286047000.1,N
1577103156.0,286047000.1,N
1577103175.8,286047002.6,N
1577103195.6,286047002.1,N
1577103215.5,286047000.2,N
1577103235.3,286047001.0,N
1577103255.2,286047000.9,N
1577103275.9,286047000.3,N
1577103295.7,286047000.5,N
1577103315.6,286046996.5,Y
1577103335.4,286046995.2,P
1577103355.3,286046996.8,N
1577103375.1,286046995.0,N
1577103376.0,286046995.0,N
1577103395.8,286046997.9,N
1577103415.7,286046997.2,N
1577103435.5,286046997.5,N
1577103455.3,286046995.0,N
1577103475.2,286046998.0,N
1577103495.0,286046997.1,N
1577103495.9,286046997.1,N
1577103515.8,286046997.3,N
1577103535.6,286046997.2,N
1577103555.4,286046995.1,Y
1577103575.3,286047001.0,P
1577103595.1,286047000.4,N
1577103615.9,286047000.4,N
1577103635.7,286047000.8,N
1577103655.5,286046999.8,N
1577103675.4,286047000.2,N
1577103695.2,286047002.7,N
1577103715.0,286047000.3,N
1577103715.9,286047000.3,N
1577103735.8,286047002.8,N
1577103755.6,286047000.2,N
1577103775.5,286047000.1,N
1577103795.3,286047000.1,N
1577103815.1,286046999.8,N
1577103835.9,286047000.1,N
1577103855.7,286047000.2,N
1577103875.5,286047002.2,N
1577103895.4,286047002.4,N
1577103915.2,286046999.8,N
1577103935.1,286047001.0,N
1577103936.0,286047001.0,N
1577103955.8,286047001.8,N
1577103975.6,286047002.5,N
1577103995.5,286047004.2,Y
1577104015.3,286047001.7,P
1577104035.2,286047004.0,P
1577104055.9,286047004.0,N
1577104075.7,286047003.4,N
1577104095.6,286047005.9,Y
1577104115.4,286047003.8,P
1577104135.2,286047004.4,P
1577104155.1,286047000.0,N
1577104156.0,286047000.0,N
1577104175.8,286047002.7,N
1577104195.7,286047000.6,N
1577104215.5,286047001.7,N
1577104235.3,286047003.7,N
1577104255.2,286047002.5,N
1577104275.0,286047001.5,N
1577104275.9,286047001.5,N
1577104295.8,286047001.7,N
1577104315.6,286047002.1,N
1577104335.4,286047001.7,N
1577104355.3,286047002.0,N
1577104375.1,286047002.0,N
1577104395.8,286047002.5,N
1577104415.7,286047003.0,N
1577104435.5,286047005.8,Y
1577104455.4,286047003.4,P
1577104475.2,286047005.6,P
1577104495.0,286047007.1,P
1577104495.9,286047007.1,Y
1577104515.8,286047002.8,P
1577104535.6,286047001.9,N
1577104555.5,286047000.5,N
1577104575.3,286047000.3,N
1577104595.1,286047002.8,N
1577104615.9,286047002.5,N
1577104635.7,286047001.5,N
1577104655.5,286047000.3,N
1577104675.4,286046998.1,N
1577104695.2,286047000.7,N
1577104715.1,286047001.2,N
1577104716.0,286047001.2,N
1577104735.8,286047000.5,N
1577104755.6,286047000.0,N
1577104775.5,286047000.9,N
1577104795.3,286047003.4,N
1577104815.2,286047005.0,Y
1577104835.9,286047004.3,P
1577104855.7,286047003.7,N
1577104875.6,286047004.4,P
1577104895.4,286047002.2,N
1577104915.2,286047002.6,N
1577104935.1,286047001.8,N
1577104936.0,286047001.8,N
1577104955.8,286047001.3,N
1577104975.7,286047003.6,Y
1577104995.5,286047000.4,P
1577105015.3,286047000.4,N
1577105035.2,286047000.2,N
1577105055.0,286046998.5,N
1577105055.9,286046998.5,N
1577105075.8,286047000.9,N
1577105095.6,286047002.8,N
1577105115.4,286046999.9,N
1577105135.3,286047001.6,N
1577105155.1,286047000.1,N
1577105175.8,286046999.7,N
1577105195.7,286047002.3,N
1577105215.5,286047000.2,N
1577105235.4,286047000.2,N
1577105255.2,286047000.5,N
1577105275.0,286047002.8,N
1577105275.9,286047002.8,N
1577105295.8,286047001.6,N
1577105315.6,286047002.0,N
1577105335.4,286046999.9,N
1577105355.3,286047002.5,N
1577105375.1,286047000.8,N
1577105395.9,286046998.7,N
1577105415.7,286047000.1,N
1577105435.5,286047000.9,N
1577105455.4,286047000.9,N
1577105475.2,286047000.4,N
1577105495.0,286047000.1,N
1577105496.0,286047000.1,N
1577105515.8,286046999.8,N
1577105535.6,286047002.8,N
1577105555.5,286047001.4,N
1577105575.3,286047000.0,N
1577105595.1,286047000.2,N
1577105615.9,286047002.0,N
1577105635.7,286047001.5,N
1577105655.5,286047002.8,N
1577105675.4,286047001.9,N
1577105695.2,286047002.8,N
1577105715.1,286047002.8,N
1577105716.0,286047002.8,N
1577105735.8,286047000.3,N
1577105755.6,286047000.0,N
1577105775.5,286046998.5,N
1577105795.3,286046998.6,N
1577105815.2,286047000.8,N
1577105835.9,286046998.3,N
1577105855.7,286047001.2,N
1577105875.6,286046998.7,N
1577105895.4,286046998.5,N
1577105915.2,286046998.3,N
1577105935.1,286047000.5,N
1577105936.0,286047000.5,N
1577105955.8,286047000.7,N
1577105975.7,286047000.8,N
1577105995.5,286047001.6,N
